Location: PSU-Greenbush Astrophysical Observatory
(37.5140°N, 94.9880°W)
Time: 07:24:22
(UTC-06:00)

Transit 2A - Pass Details

Date: 25 January 2020
Orbit: 599 x 959 km, 66.7° (Epoch: 28 February)

Event Time Altitude Azimuth Distance (km) Brightness Sun altitude
Rises 20:11:58 0° 220° (SW) 2,925 9.6 -30.9°
Reaches altitude 10° 20:14:21 10° 226° (SW) 1,986 8.7 -31.3°
Enters shadow 20:16:38 27° 243° (WSW) 1,171 7.4 -31.8°
Maximum altitude 20:18:37 47° 301° (WNW) 803 - -32.2°
Drops below altitude 10° 20:22:48 10° 16° (NNE) 1,944 - -33.0°
Sets 20:25:07 0° 23° (NNE) 2,856 - -33.5°
